Regional Weather Roundup
Issued by NWS

Home | Current Version | Previous Version | Graphics & Text | Print | Product List | Glossary On
Versions: 1 2 3 4 5 6 7 8 9 10 11 12 13 14 15 16 17 18 19 20 21 22 23 24 25 26 27 28 29 30 31 32 33 34 35 36 37 38 39 40 41 42 43 44 45 46 47 48 49 50
000
ASUS43 KDTX 281901
RWRMI
MICHIGAN HOURLY REGIONAL WEATHER ROUNDUP
NATIONAL WEATHER SERVICE DETROIT/PONTIAC MI
300 PM EDT WED SEP 28 2016

NOTE: "FAIR" INDICATES FEW OR NO CLOUDS BELOW 12,000 FEET WITH NO
SIGNIFICANT WEATHER AND/OR OBSTRUCTION TO VISIBILITY.

MIZ047>049-052>055-059>063-066>070-074>076-081>083-282000-
SOUTHEAST LOWER MICHIGAN

CITY           SKY/WX    TMP DP  RH WIND       PRES   REMARKS
ADRIAN         PTSUNNY   58  54  86 E13       29.89F
ALMA           RAIN      61  55  80 N14G23    29.96S
ANN ARBOR      LGT RAIN  57  55  93 N9        29.91R
BAD AXE        CLOUDY    64  57  79 SE5       29.99R
CARO           LGT RAIN  62  58  88 NE3       29.95S
DETROIT CITY   LGT RAIN  60  56  86 S6        29.94R
DETROIT        LGT RAIN  59  57  93 E7        29.93R
FLINT          LGT RAIN  59  52  77 NE6       29.95S
GROSSE ILE     HVY RAIN  58  55  92 SE8       29.92R
HILLSDALE      CLOUDY    61  48  63 NE13      29.87F
HOWELL         LGT RAIN  56  54  92 NE7       29.92F

CITY           SKY/WX    TMP DP  RH WIND       PRES   REMARKS
JACKSON        LGT RAIN  53  52  96 NE7       29.92F
LAMBERTVILLE   PTSUNNY   61  54  78 E6        29.89S
LANSING        LGT RAIN  59  51  75 NE7       29.94S
LAPEER         CLOUDY    62  53  74 CALM      29.96R
MASON          CLOUDY    55  51  85 CALM      29.93S
MONROE         CLOUDY    61  57  86 SE7       29.89F
MT. CLEMENS    PTSUNNY   64  55  72 E3        29.92R
PONTIAC        LGT RAIN  58  53  84 E8        29.94R
PORT HURON     CLOUDY    66  57  72 SE8       29.94S
TRI CITIES     LGT RAIN  62  57  83 NE14      29.97R
MIDLAND        PTSUNNY   64  52  65 NE9G21    29.96F
TROY           RAIN      61  55  80 SE3       29.96R
SAGINAW HB     LGT RAIN  59  52  77 E6        29.96R
$$
MIZ043>046-050>051-056>058-064>065-071>073-077>080-282000-
SOUTHWEST LOWER MICHIGAN

CITY           SKY/WX    TMP DP  RH WIND       PRES   REMARKS
BATTLE CREEK   CLOUDY    61  47  59 NE16G25   29.90S
BENTON HARBOR  CLOUDY    59  50  72 NE5       29.90R
BIG RAPIDS     MOSUNNY   66  48  51 NE10      29.98R
COLDWATER      CLOUDY    62  48  61 NE10      29.87S
FREMONT        FAIR      65  44  45 E15G21    29.97R
HOLLAND        CLOUDY    64  50  60 NE12G18   29.92S
GRAND RAPIDS   CLOUDY    64  48  56 E14       29.93S
IONIA          DRIZZLE   60  44  55 NE10G18   29.94R
KALAMAZOO      PTSUNNY   65  47  52 E9        29.90S
LUDINGTON      MOSUNNY   64  51  62 NE9       29.99R
MARSHALL       CLOUDY    58  50  73 E8G18     29.90R
MOUNT PLEASANT CLOUDY    65  51  58 NE7       29.97S
MUSKEGON       CLOUDY    64  50  60 NE13G25   29.96R
SOUTH HAVEN    CLOUDY    60  54  82 NE6       29.90S
$$
MIZ016>042-282000-
NORTHERN LOWER MICHIGAN

CITY           SKY/WX    TMP DP  RH WIND       PRES   REMARKS
ALPENA         SUNNY     69  52  54 NE17      30.05S
BEAVER ISLAND  SUNNY     63  53  70 NE10G16   30.09S
BELLAIRE       SUNNY     67  49  53 N10       30.05R
CADILLAC       SUNNY     66  46  48 NE13      30.01R
CHARLEVOIX     SUNNY     64  51  62 N9        30.09S
FRANKFORT      SUNNY     66  50  56 NE6       30.03R
GAYLORD        SUNNY     65  47  52 NE13G18   30.06R
GRAYLING       MOSUNNY   66  48  52 NE14      30.04R
HARBOR SPRINGS SUNNY     65  52  61 NE10G16   30.07S
HOUGHTON LAKE  SUNNY     66  47  50 NE15      30.02R
MANISTEE       SUNNY     66  49  54 NE12G17   30.00R
OSCODA         CLOUDY    64  53  68 NE14      30.02R
PELLSTON       SUNNY     64  49  57 NE15      30.08R
ROGERS CITY    SUNNY     64  55  74 N7        30.09S
TRAVERSE CITY  MOSUNNY   66  49  54 N10       30.02R
$$
MIZ007>008-015-282000-
EASTERN UPPER MICHIGAN

CITY           SKY/WX    TMP DP  RH WIND       PRES   REMARKS
KINROSS        MOSUNNY   64  50  60 SE9       30.11R
MACKINAC ISLAN SUNNY     63  52  67 E9        30.10R
NEWBERRY       CLOUDY    59  55  86 NE12      30.12R
S. S. MARIE    MOSUNNY   66  50  56 SE8       30.11R
MUNISING         N/A     61  56  83 NE16      30.13R
$$
MIZ004>006-011>014-085-282000-
CENTRAL UPPER MICHIGAN

CITY           SKY/WX    TMP DP  RH WIND       PRES   REMARKS
MANISTIQUE     MOSUNNY   63  51  64 N9        30.10R
ESCANABA       MOSUNNY   62  50  64 NE10      30.11R
MENOMINEE      MOSUNNY   62  53  72 NE22G28   30.09
SAWYER-GWINN   LGT RAIN  55  54  94 NE12G24   30.14R
$$
MIZ001>003-009>011-084-282000-
WESTERN UPPER MICHIGAN

CITY           SKY/WX    TMP DP  RH WIND       PRES   REMARKS
IRON MOUNTAIN  MOSUNNY   62  47  57 NE7       30.11R
HOUGHTON       CLOUDY    59  49  69 NE9       30.18R
COPPER HARBOR    N/A     58  51  78 E10G16    30.19R
IRONWOOD       CLOUDY    56  54  93 N12       30.20R FOG
$$

ABBREVIATIONS USED IN REMARKS
   TC - TEMPERATURE IN CELSIUS
  WCI - WIND CHILL INDEX
   HX - HEAT INDEX
  VSB - VISIBILITY





USA.gov is the U.S. government's official web portal to all federal, state and local government web resources and services.